FW5380 Weather Reports


Display with metric or nautical units.
time (UTC)temp
F
wind
direction
speed
MPH
gust
MPH
rain 1hr
in
rain 24hr
in
rain mn
in
humidity
%
barometer
mb
20260507203031 71 359 4.0 9.0 0.00 0.00 0.00 38 1019.4
20260507200031 69 18 4.0 12.0 0.00 0.00 0.00 41 1019.6
20260507191529 70 50 2.0 7.0 0.00 0.00 0.00 43 1020.0
20260507190029 70 12 3.0 8.0 0.00 0.00 0.00 45 1020.1
20260507184529 69 45 3.0 8.0 0.00 0.00 0.00 48 1020.3
20260507183040 65 39 2.0 7.0 0.00 0.00 0.00 52 1020.4
20260507181608 64 360 3.0 9.0 0.00 0.00 0.00 53 1020.6
20260507180103 65 351 4.0 10.0 0.00 0.00 0.00 55 1020.7
20260507174531 64 37 4.0 8.0 0.00 0.00 0.00 57 1020.8
20260507171534 62 8 5.0 11.0 0.00 0.00 0.00 60 1021.0
20260507170032 63 3 4.0 12.0 0.00 0.00 0.00 61 1021.0
20260507163147 62 283 3.0 8.0 0.00 0.00 0.00 62 1020.8
20260507161604 62 275 4.0 8.0 0.00 0.00 0.00 62 1021.0
20260507160033 62 281 4.0 8.0 0.00 0.00 0.00 65 1021.2
20260507154531 61 266 2.0 5.0 0.00 0.00 0.00 70 1021.4
20260507153032 59 278 1.0 5.0 0.00 0.00 0.00 75 1021.6
20260507151530 56 256 2.0 5.0 0.00 0.00 0.00 86 1021.7
20260507150043 50 271 1.0 4.0 0.00 0.00 0.00 92 1021.6
20260507144533 48 275 1.0 4.0 0.00 0.00 0.00 93 1021.6
20260507143030 47 252 2.0 4.0 0.00 0.00 0.00 92 1021.6
20260507141530 45 91 0.0 4.0 0.00 0.00 0.00 92 1021.4
20260507140031 44 105 0.0 2.0 0.00 0.00 0.00 91 1021.3
20260507133145 44 199 1.0 3.0 0.00 0.00 0.00 91 1021.2
20260507131531 44 103 0.0 3.0 0.00 0.00 0.00 90 1021.1
20260507130105 45 102 1.0 2.0 0.00 0.00 0.00 90 1021.0
20260507124605 45 56 1.0 4.0 0.00 0.00 0.00 90 1021.0
20260507123029 45 88 0.0 3.0 0.00 0.00 0.00 90 1020.8
20260507121647 45 88 2.0 5.0 0.00 0.00 0.00 89 1020.8
20260507114534 46 98 1.0 4.0 0.00 0.00 0.00 88 1020.7
20260507113146 46 92 2.0 4.0 0.00 0.00 0.00 87 1020.5
20260507111530 46 155 1.0 5.0 0.00 0.00 0.00 86 1020.4
20260507110029 47 76 1.0 4.0 0.00 0.00 0.00 85 1020.3
20260507103033 49 110 1.0 4.0 0.00 0.00 0.00 82 1020.3
20260507101530 51 109 2.0 4.0 0.00 0.00 0.00 81 1020.2
20260507094531 52 310 0.0 4.0 0.00 0.00 0.00 80 1020.4
20260507091530 52 303 0.0 5.0 0.00 0.00 0.00 81 1020.3
20260507090028 52 16 1.0 5.0 0.00 0.00 0.00 82 1020.4
20260507084530 52 28 2.0 6.0 0.00 0.00 0.00 82 1020.4
20260507083143 53 5 2.0 8.0 0.00 0.00 0.00 82 1020.5
20260507081531 53 53 1.0 5.0 0.00 0.00 0.00 82 1020.5
20260507080030 52 51 1.0 6.0 0.00 0.00 0.00 83 1020.6
20260507074528 52 69 1.0 6.0 0.00 0.00 0.00 83 1020.5
20260507073028 51 70 0.0 4.0 0.00 0.00 0.00 82 1020.4
20260507071532 51 229 0.0 4.0 0.00 0.00 0.00 81 1020.4
20260507064533 52 139 0.0 3.0 0.00 0.00 0.00 76 1020.6
20260507063030 53 166 0.0 4.0 0.00 0.00 0.00 73 1020.7
20260507061530 55 150 1.0 4.0 0.00 0.00 0.00 69 1020.8
20260507054530 57 335 2.0 8.0 0.00 0.00 0.00 61 1020.9
20260507053030 58 350 2.0 4.0 0.00 0.00 0.00 59 1021.0
20260507050031 60 271 2.0 6.0 0.00 0.00 0.00 54 1020.9
20260507044530 60 247 4.0 8.0 0.00 0.00 0.00 53 1021.0
20260507043029 61 247 3.0 5.0 0.00 0.00 0.00 52 1021.0
20260507040037 62 282 5.0 11.0 0.00 0.00 0.00 51 1020.8
20260507033108 64 285 5.0 11.0 0.00 0.00 0.00 48 1020.6
20260507031530 64 300 7.0 14.0 0.00 0.00 0.00 48 1020.5
20260507030104 65 304 7.0 19.0 0.00 0.00 0.00 49 1020.3
20260507024530 65 298 6.0 16.0 0.00 0.00 0.00 49 1020.2
20260507021528 66 296 6.0 14.0 0.00 0.00 0.00 49 1020.2
20260507020030 66 289 6.0 15.0 0.00 0.00 0.00 49 1020.1
20260507013027 67 305 4.0 10.0 0.00 0.00 0.00 49 1019.9
20260507011530 67 326 4.0 11.0 0.00 0.00 0.00 48 1019.8
20260507010027 68 326 6.0 13.0 0.00 0.00 0.00 45 1019.6
20260507004530 69 308 7.0 15.0 0.00 0.00 0.00 45 1019.5
20260507003032 69 308 6.0 14.0 0.00 0.00 0.00 45 1019.5
20260507001532 69 299 6.0 16.0 0.00 0.00 0.00 45 1019.4
20260507000028 71 328 8.0 16.0 0.00 0.00 0.00 45 1019.2
20260506234532 72 325 7.0 18.0 0.00 0.00 0.00 44 1019.2
20260506233029 72 334 6.0 10.0 0.00 0.00 0.00 43 1019.2
20260506231526 74 318 8.0 16.0 0.00 0.00 0.00 42 1019.2
20260506224528 74 299 7.0 16.0 0.00 0.00 0.00 44 1019.4
20260506223031 75 318 9.0 15.0 0.00 0.00 0.00 43 1019.5
20260506221529 75 315 9.0 18.0 0.00 0.00 0.00 42 1019.5
20260506211529 75 326 8.0 16.0 0.00 0.00 0.00 46 1019.3
20260506210032 75 323 8.0 14.0 0.00 0.00 0.00 46 1019.5
20260506204606 75 332 9.0 16.0 0.00 0.00 0.00 47 1019.5